Regional Weather Roundup
Issued by NWS

Home | Current Version | Previous Version | Graphics & Text | Print | Product List | Glossary Off
Versions: 1 2 3 4 5 6 7 8 9 10 11 12 13 14 15 16 17 18 19 20 21 22 23 24 25 26 27 28 29 30 31 32 33 34 35 36 37 38 39 40 41 42 43 44 45 46 47 48 49 50

000
ASUS43 KTOP 161408
RWRKS

WEATHER ROUNDUP FOR KANSAS
NATIONAL WEATHER SERVICE GOODLAND KS
900 AM CDT MON OCT 16 2017

NOTE:  "FAIR" INDICATES FEW OR NO CLOUDS BELOW 12,000 FEET WITH NO
SIGNIFICANT WEATHER AND/OR OBSTRUCTIONS TO VISIBILITY.

KSZ001>006-013>018-027>032-041>047-161500-
NORTHWEST KANSAS

CITY           SKY/WX    TMP DP  RH WIND       PRES   REMARKS
GOODLAND       CLOUDY    47  29  49 SW13      30.29F
HAYS           SUNNY     42  37  82 SW8       30.37R
HILL CITY      SUNNY     42  35  76 W3        30.34S
RUSSELL        SUNNY     43  37  79 SW9       30.35S
$$

KSZ061>065-074>080-084>089-161500-
SOUTHWEST KANSAS

CITY           SKY/WX    TMP DP  RH WIND       PRES   REMARKS
DODGE CITY     SUNNY     48  33  56 SW9       30.40R
ELKHART          N/A     47  31  54 S13         N/A
GARDEN CITY    SUNNY     40  33  76 S8        30.37S
GREAT BEND     MOSUNNY   44  36  73 SW9       30.38S
LIBERAL        SUNNY     41  35  79 S8        30.41R
PRATT          SUNNY     47  37  69 S6        30.40S
$$

KSZ066>073-081>083-090>101-161500-
SOUTHEAST KANSAS

CITY           SKY/WX    TMP DP  RH WIND       PRES   REMARKS
CHANUTE        SUNNY     48  43  82 SW3       30.43R
COFFEYVILLE    SUNNY     46  45  96 CALM      30.44R
HUTCHINSON     SUNNY     46  42  86 CALM      30.40R
MEDICINE LODGE   N/A     41  37  86 CALM      30.42R
NEWTON         SUNNY     49  38  65 SW9       30.41R
PARSONS        SUNNY     46  44  93 CALM      30.45R
WICHITA INTL   SUNNY     47  42  83 S5        30.41R
WICHITA JABRA  SUNNY     50  41  71 SW8       30.41R
WICHITA MCCONL SUNNY     48  40  73 SW7       30.41S
WINFIELD       SUNNY     47  45  93 CALM      30.44S
$$

KSZ007>012-019>026-033>040-048>060-102>105-161500-
NORTHEAST KANSAS

CITY           SKY/WX    TMP DP  RH WIND       PRES   REMARKS
CONCORDIA      SUNNY     50  38  63 SW7       30.36R
EMPORIA        SUNNY     46  40  79 SW5       30.41R
LAWRENCE       SUNNY     42  42 100 CALM      30.41R
MANHATTAN      SUNNY     42  39  89 CALM      30.39S
MARYSVILLE     SUNNY     45  41  87 CALM      30.36S
OLATHE IND     SUNNY     47  43  86 S3        30.41R
OLATHE EXE     SUNNY     48  39  71 SW5       30.40S
SALINA         SUNNY     46  42  86 S6        30.38S
TOPEKA BILLARD SUNNY     43  43 100 CALM      30.40S
TOPEKA FORBES  SUNNY     47  41  80 S3        30.40R
$$




USA.gov is the U.S. government's official web portal to all federal, state and local government web resources and services.